Tracking 19634 objects as of 21-May-2019
HD Live streaming from Space Station
objects crossing your sky now

OV2-1

Track OV2-1 now!
10-day predictions
OV2-1 is classified as:


NORAD ID: 1641
Int'l Code: 1965-082C
Perigee: 708.7 km
Apogee: 735.9 km
Inclination: 32.3 °
Period: 99.1 minutes
Semi major axis: 7093 km
RCS: 0.777 m2 (medium)
Launch date: October 15, 1965
Source: United States (US)
Launch site: AIR FORCE EASTERN TEST RANGE (AFETR)
aabbcc
Your satellite tracking list
Your tracking list is empty




NASA's NSSDC Master Catalog

Two Line Element Set (TLE):
1  1641U 65082C   19140.46470299  .00000064  00000-0  76641-5 0  9998
2  1641  32.2955 152.6094 0019233 355.5082   4.5389 14.53215017841048
Source of the keplerian elements: AFSPC